GEFSSGP_500_meanwind_276.txt.gz
Wind_Speed
14 15 15 15 16 14 12 13 12 12 12 12 11 11 11 10 9 9 8 8 8 8 8 7 7 7 8 9 9 10 10 10 10 10 9 9 10 10 9 9 9 9 8 8 8 8 6 5 5
14 14 15 16 16 12 12 13 12 12 12 12 12 11 11 11 10 9 9 8 9 8 8 7 7 8 9 9 9 10 10 10 10 10 10 10 10 10 9 9 9 8 8 8 8 8 7 6 5
14 14 15 15 13 12 12 12 12 12 12 12 12 11 11 11 10 9 9 8 8 8 9 8 8 9 10 10 10 9 9 10 10 10 10 10 10 9 8 8 8 8 7 7 8 7 6 5 5
14 14 15 14 13 13 12 12 12 12 12 12 12 12 12 11 11 10 9 9 9 8 9 9 9 10 10 10 9 9 10 9 10 10 10 10 10 9 9 8 8 7 7 7 7 6 6 5 4
14 15 15 13 14 13 13 13 12 13 13 12 12 12 12 12 11 11 10 10 9 9 8 9 9 9 9 10 9 10 9 9 9 10 10 10 10 9 9 9 8 7 6 5 5 5 5 5 4
14 16 14 13 14 13 13 13 13 14 14 13 13 13 13 13 12 11 10 9 10 10 9 9 9 9 9 9 9 10 10 9 9 10 9 10 9 9 9 8 7 7 6 5 4 4 4 4 3
15 15 14 14 14 14 14 14 14 14 14 14 14 13 13 13 12 11 10 10 10 10 9 9 9 9 9 9 10 10 10 10 9 9 9 8 8 9 8 8 7 7 6 5 4 4 4 3 3
13 14 13 14 14 15 15 15 15 15 14 14 14 14 14 13 13 11 11 10 10 10 10 10 10 10 10 9 10 10 10 10 10 9 8 8 8 8 7 7 6 6 6 5 4 4 3 4 4
13 15 12 14 14 15 16 16 15 15 15 14 14 14 14 14 14 13 12 11 11 11 11 11 11 11 11 10 11 11 11 10 10 9 9 8 8 7 6 5 5 5 4 4 3 3 2 2 4
14 13 13 14 15 15 15 16 15 15 15 14 14 14 14 14 14 14 13 12 12 11 11 12 11 11 11 11 11 11 11 10 9 9 9 8 8 7 5 4 4 4 4 2 1 1 1 1 2
13 13 13 14 14 14 14 15 15 15 15 14 13 13 13 14 14 14 13 12 12 12 12 12 12 12 12 11 11 11 10 10 9 8 8 7 7 6 6 5 4 3 3 2 1 1 1 2 3
12 12 12 13 14 13 13 14 15 14 14 14 13 13 13 13 13 13 12 11 12 12 11 11 11 11 11 11 11 11 10 10 9 8 8 6 6 6 5 5 4 3 2 1 2 2 2 2 2
10 11 12 12 12 13 13 13 14 14 13 13 13 12 13 13 13 12 12 12 12 12 11 11 11 11 11 11 11 10 10 9 7 6 6 6 6 5 5 4 3 2 2 2 2 3 3 2 2
9 10 10 10 11 12 12 12 13 13 13 13 13 12 12 12 12 12 12 11 12 12 11 11 10 10 10 10 10 9 9 8 8 6 7 6 6 6 5 4 4 3 3 2 2 2 2 2 2
7 8 9 9 10 10 11 12 12 12 13 13 13 12 12 12 12 12 12 11 11 11 11 10 10 9 9 9 8 8 8 8 7 6 6 6 5 5 5 4 3 3 2 2 1 1 2 2 2
5 6 7 7 8 9 11 11 11 11 12 12 12 11 10 11 11 11 11 11 10 10 10 10 9 9 8 8 8 7 7 6 6 5 5 5 5 5 5 4 4 3 3 3 2 2 2 2 2
4 5 5 5 7 8 9 9 9 10 10 11 11 10 9 9 10 10 10 9 9 9 9 8 8 8 8 7 6 6 6 6 5 5 5 5 5 6 5 5 4 4 4 4 3 2 2 3 3
4 3 3 3 4 6 7 7 7 8 9 9 10 10 9 8 8 9 9 9 8 8 8 8 7 7 7 7 6 6 6 5 5 6 6 5 6 6 6 5 5 5 4 4 4 3 3 3 3
7 5 3 2 2 3 5 6 6 7 7 8 8 9 8 8 7 6 7 7 7 7 7 7 7 7 6 6 6 6 6 5 5 5 6 6 6 6 6 6 5 4 4 4 4 4 4 4 3
8 6 4 2 0 1 3 4 5 6 6 6 7 7 7 7 6 5 5 5 6 6 6 6 6 6 6 6 5 5 5 5 5 5 5 5 4 5 5 5 4 4 4 4 4 4 5 5 4
9 8 6 4 2 2 0 2 3 4 4 5 6 7 7 7 6 5 5 4 4 5 5 6 6 6 6 6 5 5 6 6 5 4 4 4 4 4 3 4 4 4 4 4 4 4 5 5 5
10 10 8 6 4 3 2 1 2 2 2 3 5 6 6 6 6 5 4 4 4 4 5 5 5 5 5 5 5 5 5 4 4 4 3 3 3 3 3 3 3 3 4 4 5 5 5 6 6
13 11 9 7 6 5 4 2 3 2 2 3 3 4 5 5 5 4 3 2 2 2 3 3 4 4 4 4 4 4 4 3 3 2 2 3 3 3 3 3 3 3 4 5 5 5 5 6 6
14 12 10 8 7 6 6 4 3 4 3 3 3 4 4 5 4 4 4 3 2 1 1 1 2 2 3 2 2 2 3 2 2 2 2 2 2 2 3 3 3 3 4 4 5 6 6 7 7
16 13 10 9 9 8 8 6 5 5 4 4 4 4 5 5 4 4 4 4 3 2 1 1 0 0 0 1 1 1 1 1 1 1 1 2 2 2 2 2 3 3 4 4 5 6 6 7 7
18 16 13 11 10 10 10 8 7 5 5 5 5 5 6 5 4 4 4 4 3 3 2 2 3 3 2 2 1 1 1 1 1 1 1 1 1 2 2 2 3 3 4 5 6 6 7 8 8
21 19 16 14 12 11 12 10 8 7 7 7 7 6 6 6 5 5 4 4 4 3 3 4 4 4 3 3 3 3 3 3 3 3 2 2 2 2 2 3 4 4 5 5 6 7 7 8 8
23 21 19 16 15 14 13 12 10 9 9 9 8 8 7 7 7 6 5 5 4 4 4 4 4 4 5 5 4 4 4 4 4 3 3 3 3 3 3 3 4 5 5 6 7 8 8 8 9
25 24 22 20 19 16 14 14 13 11 11 10 10 10 9 9 8 8 6 6 6 5 5 5 5 5 5 5 5 5 5 5 4 4 4 4 4 4 4 4 5 6 6 7 8 8 9 9 10
26 26 25 23 22 20 18 17 16 13 12 12 12 12 10 10 9 9 8 8 7 7 7 7 7 6 6 6 6 6 6 5 5 5 5 5 5 6 6 6 7 8 8 8 9 9 10 11 11

GEFSSGP_500_meanwind_282.txt.gz
Wind_Speed
16 15 15 14 17 15 10 8 7 7 6 6 5 4 4 4 3 3 2 3 3 3 3 3 3 3 4 5 7 8 8 8 7 7 6 6 7 8 8 7 7 6 6 6 6 5 5 4 4
15 14 15 16 17 13 9 8 8 7 7 6 5 5 4 4 4 3 3 2 3 3 3 2 3 3 4 4 5 6 7 7 6 6 6 6 7 7 7 7 6 6 5 5 5 5 5 4 3
15 14 16 16 14 10 8 9 8 7 7 6 6 6 5 5 4 3 2 2 2 2 2 2 3 3 4 4 5 6 7 7 6 6 6 5 6 7 6 6 6 6 5 5 5 5 4 3 2
15 17 17 15 10 8 8 9 9 8 7 6 6 6 6 6 5 3 3 3 3 3 3 3 3 4 4 5 5 5 6 6 6 6 5 5 6 6 6 5 5 6 5 5 4 4 3 2 2
17 18 16 12 9 8 9 9 9 9 8 7 7 7 6 6 5 4 4 4 4 4 4 4 4 4 5 5 5 5 5 5 6 5 4 4 5 6 6 5 5 5 4 4 4 3 2 2 1
17 16 12 10 9 9 9 9 9 8 9 9 8 7 7 6 6 6 6 5 5 5 5 5 4 5 5 5 5 5 5 5 5 5 4 4 5 5 5 4 4 4 3 3 3 3 2 1 1
16 15 11 10 9 9 9 9 9 9 9 9 9 8 8 8 8 7 7 6 6 5 5 5 5 5 5 5 5 5 5 5 5 4 4 4 4 3 3 4 4 3 3 2 2 1 1 1 1
15 15 12 10 10 10 10 10 10 10 10 10 9 9 9 8 8 7 6 6 7 6 6 6 6 6 6 6 6 6 5 5 5 4 4 4 4 3 3 3 3 3 3 2 1 1 1 2 2
15 14 11 8 8 9 9 10 11 11 11 10 10 9 9 9 8 8 8 8 8 8 8 7 8 7 7 7 7 6 6 6 6 5 4 4 4 3 3 3 3 3 2 1 1 1 2 2 3
12 10 8 7 7 9 10 11 11 11 11 11 10 10 10 9 9 9 9 9 9 10 9 10 9 8 8 8 7 7 6 6 6 5 5 4 3 2 2 3 2 2 2 1 1 1 2 3 4
8 8 7 8 8 9 10 10 11 12 12 11 10 10 10 9 9 9 10 10 10 10 10 10 10 9 9 9 8 7 7 6 5 5 4 3 2 2 2 2 1 1 2 2 2 2 2 2 3
8 8 8 9 10 10 10 10 11 11 12 11 11 11 11 10 10 10 10 11 11 10 11 11 10 9 9 8 8 7 7 6 5 4 4 3 3 2 2 2 1 2 2 2 2 2 2 2 3
9 9 9 9 10 10 10 11 11 12 11 11 11 11 11 11 11 11 11 11 11 10 10 10 10 9 8 8 7 6 6 6 5 4 2 2 2 2 2 2 2 2 2 3 3 3 3 3 4
7 8 8 9 10 10 11 11 12 12 12 12 11 12 12 11 11 11 11 11 11 10 10 9 9 9 8 7 6 5 5 5 4 3 2 2 2 2 2 2 2 3 3 3 3 4 3 3 4
5 8 10 9 9 10 11 12 11 11 12 12 12 12 12 12 11 11 11 11 11 10 10 9 8 8 8 7 6 5 4 4 4 4 3 3 3 3 3 3 4 4 4 4 4 4 4 4 4
5 8 8 8 8 9 10 11 11 11 11 12 12 12 12 12 11 11 11 11 10 10 9 8 8 7 7 7 6 6 5 4 4 5 4 4 4 4 4 4 4 4 5 5 5 4 4 4 4
4 5 6 6 6 8 10 10 11 11 11 11 11 12 12 12 11 11 11 10 10 9 9 8 7 6 6 6 6 6 6 5 4 5 5 5 5 5 5 5 4 5 5 5 6 6 6 5 5
2 2 4 4 5 5 7 8 10 11 11 11 10 11 11 11 11 10 10 10 9 9 9 8 7 7 6 6 6 6 7 6 5 5 5 4 4 4 5 5 5 5 5 6 6 6 6 6 6
3 1 0 3 4 4 5 6 8 10 11 11 11 10 10 10 10 10 9 9 8 8 8 8 7 7 6 7 7 7 7 7 6 6 6 4 4 4 5 5 5 5 5 6 6 6 6 6 6
4 4 3 2 4 2 2 4 7 9 10 10 10 10 10 9 10 9 9 8 8 7 8 7 7 7 7 7 7 7 6 6 6 6 6 6 5 5 4 5 5 5 5 6 6 6 6 7 7
6 6 4 4 5 3 4 3 4 7 8 9 9 9 9 9 9 8 8 8 7 7 7 7 7 7 7 7 7 7 6 5 5 6 6 6 5 4 5 5 5 5 5 6 6 7 7 7 8
8 8 6 5 5 5 6 6 4 6 7 8 8 8 8 8 8 7 7 6 6 6 6 6 6 6 6 6 6 6 6 6 6 6 5 5 4 4 4 5 5 5 5 6 6 7 7 8 8
10 9 8 6 6 4 4 7 4 5 6 7 7 8 8 8 8 8 6 5 5 5 5 6 6 6 6 6 6 5 6 6 6 6 5 5 4 4 4 4 4 5 6 6 7 7 8 8 8
12 9 7 6 5 5 5 6 6 5 6 7 6 7 7 7 7 7 7 6 6 6 5 5 6 5 6 5 5 5 5 5 5 5 5 5 4 4 4 4 4 5 5 6 7 7 8 9 9
13 11 8 8 7 6 5 7 7 7 8 8 8 8 8 8 8 7 7 7 6 6 5 5 5 4 5 5 5 5 5 5 5 5 5 5 5 4 4 3 4 5 5 6 7 8 8 9 9
15 14 12 10 9 8 7 9 9 9 9 8 8 8 9 9 9 8 7 6 6 6 6 6 5 4 5 6 5 5 6 5 5 5 5 6 6 5 5 4 4 5 6 6 7 8 9 9 9
17 16 13 12 12 11 9 10 11 10 10 9 9 8 9 9 9 9 8 7 7 7 7 6 6 6 6 6 6 6 6 6 6 6 6 7 7 6 6 5 5 6 6 7 8 9 9 10 10
20 18 15 16 15 14 10 10 12 12 12 12 11 10 9 9 9 9 8 6 7 7 7 7 7 7 7 7 7 7 7 7 7 7 7 8 7 7 6 6 7 7 8 8 9 9 10 11 12
21 21 20 18 16 14 12 11 12 14 13 13 12 11 11 10 9 10 9 9 9 8 8 7 7 7 7 8 8 8 8 8 8 8 8 8 8 8 8 8 8 9 10 10 10 10 11 12 13
22 22 21 19 17 16 14 13 13 14 14 14 14 13 13 12 11 11 10 10 10 9 9 8 9 9 8 8 8 8 8 9 9 9 9 10 9 9 10 10 10 10 11 11 11 12 12 13 14

GEFSSGP_500_meanwind_288.txt.gz
Wind_Speed
14 15 15 14 14 15 16 16 15 14 13 12 11 10 10 9 9 7 6 5 5 5 5 4 5 5 5 6 6 6 6 7 7 6 6 6 6 6 6 6 6 6 6 6 5 5 5 4 4
14 14 15 14 16 16 16 17 16 14 14 13 12 10 10 10 9 7 6 5 6 5 5 5 5 5 5 5 7 7 7 7 7 6 6 6 6 6 6 6 6 6 5 5 5 4 4 3 3
13 13 14 15 17 18 17 17 16 15 13 13 12 11 10 10 9 8 7 7 6 5 5 4 4 5 5 6 6 7 7 7 6 6 6 6 6 5 6 6 5 5 5 5 4 4 4 3 3
13 12 13 16 19 19 18 17 16 15 13 12 12 12 11 10 9 8 8 8 7 5 5 5 5 5 6 6 6 7 7 7 6 5 5 5 5 5 6 6 6 5 5 5 4 3 3 3 3
12 14 16 18 19 19 18 16 15 14 13 13 13 12 12 12 11 9 8 8 7 7 6 5 5 5 6 7 7 7 7 7 6 5 5 5 4 4 5 5 5 4 4 4 3 3 3 2 2
14 14 17 18 18 18 17 17 16 14 13 13 13 13 13 12 11 10 9 8 8 7 6 6 6 7 7 7 7 7 7 7 7 6 5 5 4 4 4 4 3 3 3 2 2 2 2 2 1
14 15 16 17 17 17 17 17 16 15 14 13 13 13 14 13 12 11 10 9 9 8 7 8 7 8 8 8 8 8 8 8 7 6 5 5 4 4 4 3 2 2 3 2 2 1 1 0 0
14 15 16 17 17 17 17 17 17 16 15 14 14 14 14 13 12 12 11 10 9 9 8 9 9 9 9 9 8 8 8 8 7 6 5 5 4 3 3 3 2 3 3 2 1 1 1 1 1
15 15 15 16 17 17 18 17 17 17 16 15 15 15 15 14 13 12 12 12 11 10 10 10 10 11 10 10 9 9 8 7 7 6 5 4 4 3 2 2 2 3 3 1 1 1 1 0 1
14 15 15 15 16 17 18 18 17 17 16 16 16 16 15 14 14 14 13 13 13 12 12 12 12 12 12 10 9 9 8 7 7 6 5 5 4 3 3 2 2 2 2 2 2 1 0 0 1
13 13 14 15 16 17 17 17 17 17 16 16 16 16 15 15 15 15 14 14 14 13 12 13 13 12 11 10 9 8 8 7 7 6 5 5 5 4 4 3 2 2 2 2 2 1 0 0 1
12 12 12 14 15 16 17 17 17 16 16 16 16 15 15 16 16 15 14 14 14 13 13 13 13 11 11 10 9 9 8 7 7 6 5 4 4 3 3 4 4 3 2 1 1 2 2 2 2
11 11 11 14 15 16 17 17 17 16 16 16 16 15 15 15 15 15 15 15 14 13 13 13 13 12 11 10 9 8 8 7 6 5 4 4 3 3 3 3 3 2 2 2 2 4 3 3 3
11 11 12 14 15 16 16 16 16 16 16 16 15 15 15 15 15 15 15 14 14 14 13 12 12 12 12 12 10 9 9 8 7 6 5 4 4 4 4 3 3 3 2 2 2 3 3 3 3
12 11 12 13 14 14 15 15 15 15 15 15 15 15 15 15 15 14 14 13 14 14 13 13 13 12 12 11 10 10 8 7 7 6 5 4 4 4 5 4 4 4 4 4 3 4 4 3 3
11 11 11 11 11 12 13 14 14 15 14 14 14 15 15 15 15 14 13 12 13 13 13 13 13 12 11 11 10 9 9 8 7 6 6 6 5 5 6 6 6 5 5 5 5 5 5 4 4
9 9 9 8 9 10 11 13 13 13 13 13 13 14 15 15 15 14 13 12 13 13 13 12 12 11 11 10 10 9 9 8 8 8 8 7 6 6 6 7 7 6 6 6 5 5 5 5 4
7 7 7 6 7 7 8 10 12 12 13 13 13 13 14 14 14 14 13 12 12 12 12 11 11 11 10 10 10 10 9 9 8 8 8 7 6 6 6 6 6 6 5 5 5 5 5 5 4
6 6 6 5 5 5 6 7 9 11 11 12 12 12 12 12 12 12 12 12 12 11 11 10 10 10 9 9 9 9 9 9 9 8 7 7 6 6 6 5 6 6 5 5 5 5 5 5 4
4 4 3 4 4 5 4 5 7 9 9 11 11 11 11 11 12 11 10 9 10 10 10 9 9 9 9 8 8 8 9 8 8 8 8 8 7 7 6 6 6 6 5 5 5 5 5 5 5
4 2 1 1 3 3 3 3 5 6 7 9 10 10 9 9 10 11 10 9 9 9 8 9 9 8 8 8 7 7 7 7 7 8 8 7 7 6 6 6 6 6 6 5 5 5 5 5 5
6 3 3 3 2 1 1 2 4 5 6 7 8 8 8 8 9 9 9 9 8 8 8 7 7 8 8 7 7 6 6 6 6 7 7 6 6 5 5 5 5 5 5 4 4 4 5 5 5
7 6 6 6 5 4 2 2 3 4 4 6 7 7 8 7 7 7 7 7 7 7 7 6 6 7 7 7 6 6 5 4 4 5 6 6 5 5 4 4 4 4 4 4 4 5 5 5 5
9 8 7 8 7 6 4 4 3 2 4 5 6 7 7 7 7 7 5 5 5 5 5 5 5 5 6 6 6 5 5 4 4 5 5 5 5 4 3 3 3 3 4 4 4 5 5 5 6
12 10 9 9 9 8 6 5 3 3 4 4 4 5 6 7 6 6 5 4 4 4 4 4 4 4 4 4 5 5 4 3 3 4 4 5 5 4 3 3 3 3 4 5 5 6 6 6 6
14 13 12 11 10 8 7 6 5 4 3 3 3 4 5 6 6 7 6 5 3 2 3 3 4 4 4 4 4 4 4 3 2 3 4 4 4 4 4 4 4 4 5 5 6 6 7 6 6
17 16 15 13 11 10 9 8 7 6 4 5 4 4 4 5 6 6 6 5 4 3 2 3 4 4 4 4 4 4 4 3 3 3 4 4 4 4 5 5 5 5 5 6 6 7 7 7 7
18 17 17 16 14 13 12 10 9 6 7 6 6 7 6 7 6 6 6 5 4 4 3 3 3 4 5 5 4 4 4 4 3 4 4 4 5 5 5 6 7 6 6 7 7 7 8 8 8
22 20 20 19 18 17 15 12 10 10 10 9 7 8 8 7 7 7 7 7 6 5 5 4 4 5 5 6 5 5 5 5 5 5 5 6 6 6 6 7 7 7 7 8 8 8 9 9 9
24 22 21 21 19 19 17 15 13 12 11 10 9 9 9 9 9 8 8 8 8 8 7 6 6 6 6 7 6 6 6 6 6 7 7 7 7 7 7 7 8 8 9 9 9 10 10 11 12

GEFSSGP_500_meanwind_294.txt.gz
Wind_Speed
14 14 14 14 15 15 15 15 15 14 14 12 11 10 9 9 8 7 6 6 5 5 5 5 6 7 7 7 8 8 8 8 8 7 7 8 8 7 7 7 6 5 5 5 4 3 3 3 3
13 13 14 15 16 16 16 15 15 14 14 13 12 11 10 9 8 8 7 6 5 5 6 6 6 7 8 8 9 9 8 8 8 7 7 7 6 6 7 7 6 5 4 4 4 2 2 2 2
13 13 14 15 16 16 16 15 15 15 14 13 12 11 11 9 8 8 7 7 6 6 7 7 7 7 8 9 10 9 9 8 8 7 6 6 6 6 7 7 6 5 4 4 3 2 1 1 1
13 14 14 15 16 16 17 16 15 15 14 13 12 12 11 10 8 8 8 7 7 7 7 8 8 8 8 9 9 9 8 8 8 7 6 7 6 6 6 5 5 5 4 4 3 2 1 1 0
13 14 15 15 16 16 16 16 16 15 14 13 13 12 12 10 9 8 8 8 7 7 7 8 9 9 9 9 9 9 8 8 8 7 7 6 6 5 5 6 5 4 4 4 3 2 1 1 0
14 14 15 16 17 16 16 16 16 15 14 13 13 13 12 11 10 9 9 8 8 7 7 8 9 9 9 9 9 8 8 7 7 6 6 5 6 5 4 5 4 4 3 3 2 2 1 0 0
14 15 16 16 16 16 16 16 17 16 15 14 13 13 11 11 10 9 9 8 8 8 8 8 9 9 9 9 9 9 8 7 7 6 6 5 5 4 4 4 3 3 3 3 2 1 1 1 1
13 14 16 16 16 17 16 16 16 15 14 14 13 13 12 11 10 10 9 9 9 9 9 10 9 10 11 10 9 9 8 8 7 6 6 5 5 4 4 4 3 3 3 2 1 0 1 1 1
13 14 16 16 16 17 16 16 16 14 14 13 13 14 14 12 12 11 11 11 11 11 11 11 11 11 11 11 10 9 8 7 7 6 5 4 4 4 4 4 3 2 1 1 1 1 2 2 1
12 14 16 16 16 16 17 17 16 14 14 14 14 14 14 14 13 13 12 12 12 12 12 12 12 12 11 11 10 9 8 7 6 5 5 4 4 4 4 4 3 2 1 1 2 2 2 2 2
12 14 15 15 16 16 16 16 16 15 14 14 14 14 14 14 14 13 13 13 13 12 13 13 13 12 12 11 10 9 8 7 6 5 5 4 4 4 5 4 3 2 1 1 1 2 2 2 2
12 13 14 15 16 16 16 16 16 16 15 15 14 14 13 14 14 14 13 14 13 13 13 13 13 12 12 11 10 9 8 7 6 5 4 4 4 4 4 4 3 2 1 1 1 1 2 2 1
11 13 13 14 15 16 16 16 16 16 16 14 14 13 13 13 13 13 13 13 13 13 13 13 13 12 11 10 10 9 8 7 7 6 5 4 4 4 4 4 3 2 2 1 1 0 0 0 1
10 11 12 13 14 15 15 16 16 15 14 14 14 14 13 12 12 13 13 13 13 13 13 13 12 12 11 10 9 9 8 7 7 6 5 5 4 4 4 3 3 2 2 1 1 1 1 1 1
9 10 11 12 13 14 14 15 14 13 13 12 13 13 13 12 12 12 13 13 12 12 12 12 12 12 11 11 10 9 8 7 7 6 5 5 5 5 5 5 5 3 2 1 1 1 1 1 2
6 8 10 10 12 12 12 13 13 12 11 11 12 12 13 13 13 12 12 12 12 11 11 11 11 11 11 10 9 9 8 8 7 7 6 6 6 6 6 6 5 4 3 3 3 2 3 3 3
5 6 8 9 10 11 11 11 11 11 10 10 11 11 11 12 12 12 11 11 11 11 10 10 10 10 10 9 9 9 8 8 7 7 7 7 6 6 6 5 5 4 4 4 4 3 3 3 3
3 3 5 6 7 8 9 10 10 9 9 9 10 10 11 11 11 11 11 10 10 9 9 9 9 9 9 9 9 9 8 8 7 7 7 6 6 6 5 4 4 4 4 4 3 3 3 3 3
5 3 3 3 4 6 8 8 9 9 9 9 9 9 10 10 10 10 10 9 9 8 8 9 9 8 8 8 8 8 7 7 7 7 6 6 5 5 5 4 4 4 4 3 4 4 3 3 3
6 4 2 2 3 4 6 7 8 8 8 8 9 10 10 10 10 10 9 9 8 7 7 8 8 7 7 7 7 8 7 7 7 7 6 5 5 5 4 4 4 4 4 4 4 4 4 4 4
7 6 4 2 2 2 3 3 5 6 6 8 8 8 9 9 8 8 8 9 9 7 7 6 7 6 6 6 6 6 6 6 6 6 6 5 5 5 5 4 4 3 4 4 4 4 5 5 4
10 8 7 5 4 3 2 2 3 4 5 6 7 7 7 8 8 7 7 7 7 7 6 6 6 6 6 5 5 5 5 5 5 5 5 5 5 4 3 4 4 3 3 4 4 5 5 5 5
12 10 9 7 6 5 3 1 1 2 3 4 5 5 5 5 6 6 6 6 6 5 4 5 5 5 6 6 5 4 5 5 5 5 5 5 5 4 3 3 3 3 3 4 4 5 5 5 6
14 12 11 10 8 7 6 4 2 0 1 1 3 4 4 4 4 5 5 5 5 4 4 4 4 4 4 5 4 4 4 4 4 4 4 4 4 4 3 3 3 4 4 4 5 5 6 6 6
15 14 13 12 10 8 7 7 4 3 2 2 2 3 3 3 3 3 3 3 4 4 3 2 2 2 3 3 3 3 3 3 3 3 3 4 4 4 3 3 4 4 4 5 6 6 7 7 7
17 15 14 13 12 10 9 8 6 5 4 3 3 3 4 3 3 3 2 2 2 2 1 1 1 2 2 3 3 3 3 3 3 3 3 4 4 4 4 5 5 5 5 6 7 7 8 8 9
19 18 17 15 13 12 11 9 8 7 6 5 5 5 5 4 4 4 4 3 2 2 2 2 2 3 3 4 4 3 3 3 3 3 4 5 5 5 6 6 6 6 6 7 8 8 9 10 10
22 20 19 18 17 14 12 10 9 9 8 7 6 6 7 6 6 6 6 5 4 4 4 3 3 4 5 5 5 5 4 4 4 5 5 6 6 6 7 7 7 7 7 8 9 9 10 10 10
23 22 21 21 19 17 14 12 10 10 9 9 8 8 8 8 8 8 7 7 6 6 5 5 5 5 6 6 7 6 6 6 6 7 7 8 8 8 8 8 9 9 9 10 10 11 11 11 12
25 24 24 23 21 19 18 15 13 11 11 10 10 9 10 10 10 9 8 8 8 8 7 7 7 8 8 8 8 8 8 8 8 8 9 9 10 10 10 11 11 11 12 12 13 13 13 13 13